This is the latest recevied weather packets stored in our database for station/object JR5YHL-13. If no packets are shown the sender has not sent any weather packets the latest 10 day(s).
| Time | Temp. | Humidity | Pressure | Rain* | Wind** | Luminosity | Snow |
|---|---|---|---|---|---|---|---|
| 1777625145 | 17.22° C | 42% | 1004.5 hPa | 0 mm | - | - | - |
| 1777624548 | 17.22° C | 41% | 1004.2 hPa | 0 mm | - | - | - |
| 1777623950 | 17.22° C | 41% | 1004.1 hPa | 0 mm | - | - | - |
| 1777623353 | 17.78° C | 40% | 1004 hPa | 0 mm | - | - | - |
| 1777622755 | 18.33° C | 39% | 1004.1 hPa | 0 mm | - | - | - |
| 1777622158 | 17.78° C | 39% | 1004.1 hPa | 0 mm | - | - | - |
| 1777621560 | 17.78° C | 40% | 1004.2 hPa | 0 mm | - | - | - |
| 1777620962 | 17.22° C | 40% | 1004.1 hPa | 0 mm | - | - | - |
| 1777620365 | 17.22° C | 41% | 1004 hPa | 0 mm | - | - | - |
| 1777619767 | 17.78° C | 40% | 1004 hPa | 0 mm | - | - | - |
| 1777619169 | 18.33° C | 38% | 1003.8 hPa | 0 mm | - | - | - |
| 1777618572 | 18.33° C | 40% | 1003.7 hPa | 0 mm | - | - | - |
| 1777617974 | 18.89° C | 40% | 1003.8 hPa | 0 mm | - | - | - |
| 1777617376 | 18.89° C | 40% | 1003.6 hPa | 0 mm | - | - | - |
| 1777616778 | 19.44° C | 38% | 1003.4 hPa | 0 mm | - | - | - |
| 1777616181 | 20.56° C | 37% | 1003.6 hPa | 0.25 mm | - | - | - |
| 1777615583 | 21.11° C | 34% | 1003.2 hPa | 0.25 mm | - | - | - |
| 1777614985 | 22.22° C | 33% | 1003.3 hPa | 0.25 mm | - | - | - |
| 1777614388 | 22.22° C | 31% | 1003.2 hPa | 0.25 mm | - | - | - |
| 1777613790 | 22.22° C | 30% | 1002.8 hPa | 0.25 mm | - | - | - |
| 1777613192 | 22.22° C | 29% | 1003 hPa | 0.25 mm | - | - | - |
| 1777612595 | 22.78° C | 26% | 1002.9 hPa | 0 mm | - | - | - |
| 1777611997 | 22.78° C | 28% | 1002.9 hPa | 0 mm | - | - | - |
| 1777611400 | 22.78° C | 29% | 1002.7 hPa | 0.25 mm | - | - | - |
| 1777610802 | 22.78° C | 31% | 1002.8 hPa | 0.25 mm | - | - | - |
* Rain latest hour (hover to see other rain measurements)
** Current wind speed in m/s (hover to see current wind gust speed)